Tracking 30061 objects as of 9-Dec-2024
HD Live streaming from Space Station
objects crossing your sky now

ANDESITE

Track ANDESITE now!
10-day predictions


NORAD ID: 45726
Int'l Code: 2020-037D
Perigee: 568.1 km
Apogee: 576.5 km
Inclination: 97.8 °
Period: 96.0 minutes
Semi major axis: 6943 km
RCS: Unknown
Launch date: June 13, 2020
Source: United States (US)
Launch site: Rocket Lab Launch Complex (RLLC)
Your satellite tracking list
Your tracking list is empty




NASA's NSSDC Master Catalog

Two Line Element Set (TLE):
1 45726U 20037D   24343.51330971  .00007437  00000-0  59370-3 0  9999
2 45726  97.7755 162.0716 0006013 243.3273 116.7335 15.00559611242178
Source of the keplerian elements: AFSPC